Accueil
METAR-TAF:

METAR-TAF

Aéroports :

Nenana, Alaska, États-Unis

latitude: 64-33N, longitude: 149-05W, altitude: 110 m

Observation

Le bulletin a été fait il y a 1 heure et 6 minutes, à 20:53 UTC
Vent calme
Température -17°C
Humidité 84%
Pression 989 hPa
Visibilité: 16.1 km
Ciel clair

METAR: PANN 202053Z AUTO 00000KT 10SM CLR M17/M19 A2920 RMK AO2 SLP903 T11671194 58003 TSNO

Heure: 12:59 (21:59 UTC)


TAF: absent

Observations et prévisions météorologiques de plus de 4000 aéroports (messages METAR et TAF).

Les stations disponibles sont représentées par des disques jaunes et rouges sur la carte.

Passer la souris dessus pour voir le nom de la station.

Cliquer dessus pour voir les observations et prévisions météorologiques.

Pour changer de carte: cliquez sur les boutons verts avec une croix noire pour zoomer, sur le bouton vert avec un tiret pour effectuer un zoom arrière, ou sur les flèches vertes pour les cartes adjacentes.


METAR-TAF: